FW9486 Weather Reports


Display with metric or nautical units.
time (UTC)temp
F
wind
direction
speed
MPH
gust
MPH
rain 1hr
in
rain 24hr
in
rain mn
in
humidity
%
barometer
mb
20260508111545 39 0 0.0 0.0 0.00 0.00 0.00 84 1012.9
20260508110036 41 0 0.0 1.0 0.00 0.00 0.00 82 1012.9
20260508104538 41 0 0.0 0.0 0.00 0.00 0.00 83 1012.9
20260508103038 40 0 0.0 0.0 0.00 0.00 0.00 84 1012.8
20260508101536 41 0 0.0 0.0 0.00 0.00 0.00 81 1012.8
20260508100034 42 0 0.0 0.0 0.00 0.00 0.00 79 1012.8
20260508094537 42 0 0.0 0.0 0.00 0.00 0.00 79 1012.6
20260508093039 42 0 0.0 0.0 0.00 0.00 0.00 78 1012.6
20260508091544 44 0 0.0 1.0 0.00 0.00 0.00 74 1012.5
20260508090040 44 0 0.0 0.0 0.00 0.00 0.00 76 1012.5
20260508084535 44 0 0.0 1.0 0.00 0.00 0.00 75 1012.5
20260508083037 45 0 0.0 0.0 0.00 0.00 0.00 74 1012.4
20260508081544 45 0 0.0 1.0 0.00 0.00 0.00 74 1012.4
20260508080035 47 0 0.0 1.0 0.00 0.00 0.00 70 1012.3
20260508074538 47 0 0.0 1.0 0.00 0.00 0.00 71 1012.4
20260508073037 47 0 0.0 1.0 0.00 0.00 0.00 70 1012.3
20260508071541 48 0 0.0 1.0 0.00 0.00 0.00 69 1012.3
20260508070038 48 0 0.0 1.0 0.00 0.00 0.00 67 1012.1
20260508064539 49 0 0.0 0.0 0.00 0.00 0.00 65 1012.2
20260508063036 51 0 0.0 1.0 0.00 0.00 0.00 62 1012.2
20260508061538 51 11 0.0 1.0 0.00 0.00 0.00 60 1012.1
20260508060034 51 0 0.0 1.0 0.00 0.00 0.00 60 1012.0
20260508054544 51 0 0.0 0.0 0.00 0.00 0.00 59 1012.1
20260508053035 53 0 0.0 1.0 0.00 0.00 0.00 56 1011.9
20260508051538 55 0 0.0 2.0 0.00 0.00 0.00 50 1011.8
20260508050035 55 356 0.0 2.0 0.00 0.00 0.00 49 1011.8
20260508044536 56 0 0.0 0.0 0.00 0.00 0.00 48 1011.8
20260508043048 58 30 0.0 1.0 0.00 0.00 0.00 45 1011.8
20260508041536 58 0 0.0 1.0 0.00 0.00 0.00 47 1011.8
20260508040037 59 0 0.0 0.0 0.00 0.00 0.00 46 1011.6
20260508034538 60 0 0.0 0.0 0.00 0.00 0.00 44 1011.5
20260508033033 61 0 0.0 1.0 0.00 0.00 0.00 43 1011.2
20260508031536 61 0 0.0 1.0 0.00 0.00 0.00 44 1011.0
20260508030036 62 0 0.0 2.0 0.00 0.00 0.00 43 1010.9
20260508024535 64 0 0.0 1.0 0.00 0.00 0.00 40 1010.7
20260508023036 65 22 0.0 2.0 0.00 0.00 0.00 38 1010.6
20260508021542 66 325 0.0 2.0 0.00 0.00 0.00 36 1010.4
20260508020041 67 0 0.0 7.0 0.00 0.00 0.00 35 1010.3
20260508014535 68 324 2.0 9.0 0.00 0.00 0.00 34 1010.2
20260508013037 69 0 2.0 9.0 0.00 0.00 0.00 36 1010.1
20260508011535 69 302 5.0 12.0 0.00 0.00 0.00 32 1010.1
20260508010043 70 312 2.0 14.0 0.00 0.00 0.00 33 1010.2
20260508004541 71 293 3.0 9.0 0.00 0.00 0.00 32 1010.3
20260508003034 71 351 3.0 12.0 0.00 0.00 0.00 30 1010.4
20260508001535 71 249 5.0 12.0 0.00 0.00 0.00 29 1010.3
20260508000034 71 198 6.0 14.0 0.00 0.00 0.00 30 1010.3
20260507234539 72 261 3.0 12.0 0.00 0.00 0.00 29 1010.3
20260507233040 72 147 3.0 8.0 0.00 0.00 0.00 29 1010.3
20260507231540 71 235 5.0 12.0 0.00 0.00 0.00 29 1010.4
20260507230035 70 0 1.0 9.0 0.00 0.00 0.00 31 1010.4
20260507224536 71 286 4.0 7.0 0.00 0.00 0.00 29 1010.5
20260507223034 72 9 3.0 7.0 0.00 0.00 0.00 27 1010.7
20260507221536 71 59 1.0 11.0 0.00 0.00 0.00 30 1010.8
20260507220035 71 277 3.0 9.0 0.00 0.00 0.00 30 1011.1
20260507214536 71 69 1.0 8.0 0.00 0.00 0.00 30 1011.1
20260507213043 71 200 1.0 6.0 0.00 0.00 0.00 30 1011.2
20260507211539 71 0 2.0 7.0 0.00 0.00 0.00 30 1011.3
20260507210040 70 269 1.0 8.0 0.00 0.00 0.00 32 1011.5
20260507204539 70 277 4.0 10.0 0.00 0.00 0.00 29 1011.8
20260507203036 70 234 6.0 12.0 0.00 0.00 0.00 32 1011.9
20260507201538 69 266 3.0 8.0 0.00 0.00 0.00 28 1012.1
20260507200039 69 295 1.0 8.0 0.00 0.00 0.00 33 1012.2
20260507194537 68 209 4.0 15.0 0.00 0.00 0.00 35 1012.1
20260507193047 68 221 4.0 12.0 0.00 0.00 0.00 35 1012.0
20260507191535 68 18 2.0 6.0 0.00 0.00 0.00 41 1012.0
20260507190036 67 114 3.0 7.0 0.00 0.00 0.00 40 1011.9
20260507184541 66 146 3.0 6.0 0.00 0.00 0.00 38 1012.0
20260507183043 66 172 2.0 6.0 0.00 0.00 0.00 42 1012.2
20260507181535 65 287 2.0 7.0 0.00 0.00 0.00 45 1012.2
20260507180035 63 153 2.0 5.0 0.00 0.00 0.00 46 1012.5
20260507174535 62 134 1.0 5.0 0.00 0.00 0.00 50 1012.4
20260507173046 60 128 2.0 4.0 0.00 0.00 0.00 55 1012.7
20260507171545 59 112 2.0 4.0 0.00 0.00 0.00 57 1012.9
20260507170035 58 133 1.0 3.0 0.00 0.00 0.00 67 1012.8
20260507164536 56 155 0.0 2.0 0.00 0.00 0.00 68 1012.9
20260507163036 55 0 0.0 2.0 0.00 0.00 0.00 73 1012.9
20260507161535 54 0 0.0 1.0 0.00 0.00 0.00 76 1013.1
20260507160036 53 123 0.0 1.0 0.00 0.00 0.00 78 1013.1
20260507154539 52 0 0.0 3.0 0.00 0.00 0.00 79 1013.1
20260507153036 51 137 1.0 3.0 0.00 0.00 0.00 79 1013.1
20260507151538 50 0 0.0 2.0 0.00 0.00 0.00 79 1013.1
20260507150039 50 114 0.0 2.0 0.00 0.00 0.00 79 1013.0
20260507144607 51 110 0.0 2.0 0.00 0.00 0.00 77 1012.9
20260507143036 49 0 0.0 1.0 0.00 0.00 0.00 80 1012.8
20260507141538 48 0 0.0 1.0 0.00 0.00 0.00 79 1012.8
20260507140042 45 0 0.0 1.0 0.00 0.00 0.00 85 1012.6
20260507134542 45 71 0.0 1.0 0.00 0.00 0.00 85 1012.6
20260507133038 43 0 0.0 1.0 0.00 0.00 0.00 91 1012.5
20260507131541 41 0 0.0 0.0 0.00 0.00 0.00 91 1012.4
20260507130035 41 0 0.0 1.0 0.00 0.00 0.00 93 1012.4
20260507124534 41 0 0.0 0.0 0.00 0.00 0.00 92 1012.4
20260507123037 41 0 0.0 1.0 0.00 0.00 0.00 93 1012.3
20260507121536 41 0 0.0 0.0 0.00 0.00 0.00 92 1012.2
20260507120035 41 0 0.0 1.0 0.00 0.00 0.00 93 1012.2
20260507114535 41 0 0.0 0.0 0.00 0.00 0.00 90 1012.2
20260507113038 42 61 0.0 1.0 0.00 0.00 0.00 91 1012.1